Weather History for Ravenna, OH

Change the Weather History Date:

Saturday, March 9, 2013

  Actual Average (KCAK) Record (KCAK)
Temperature  
Mean Temperature 36 °F 35 °F  
Max Temperature 51 °F 44 °F 71 °F (2000)
Min Temperature 21 °F 26 °F 0 °F (1984)
Degree Days  
Heating Degree Days 29 30  
Month to date heating degree days 282  
Since 1 July heating degree days 4826  
Cooling Degree Days 0 0  
Month to date cooling degree days 0  
Year to date cooling degree days 0  
Moisture  
Dew Point 27 °F    
Average Humidity 69    
Maximum Humidity 100    
Minimum Humidity 39    
Precipitation  
Precipitation 0.00 in 0.09 in 3.21 in (1964)
Month to date precipitation 0.78  
Year to date precipitation 5.70  
Snow  
Snow 0.00 in 0.30 in - ()
Month to date snowfall 3.0  
Since 1 July snowfall 39.5  
Snow Depth -    
Sea Level Pressure  
Sea Level Pressure 30.27 in    
Wind  
Wind Speed 3 mph (ESE)    
Max Wind Speed 9 mph    
Max Gust Speed -    
Visibility 8 miles    
Events      
T = Trace of Precipitation, MM = Missing Value Source: NWS Daily Summary

Daily Weather History Graph

Daily Weather History Graph

Search for Another Location

Airport:

Trip Planner

Search our weather history database for the weather conditions in past years. The results will help you decide how hot, cold, wet, or windy it might be!

Date:

Astronomy

Mar. 09, 2013 Rise Set
Actual Time 6:46 AM EST 6:25 PM EST
Civil Twilight 6:18 AM EST 6:52 PM EST
Nautical Twilight 5:46 AM EST 7:24 PM EST
Astronomical Twilight 5:14 AM EST 7:57 PM EST
Moon 5:10 AM EST (3/9) 4:25 PM EST (3/9)
Length of Visible Light 12h 34m
Length of Day
11h 39m
Waning Crescent, 5% of the Moon is Illuminated
Mar 9
Waning Crescent
Mar 11
New
Mar 19
First Quarter
Mar 27
Full
Apr 3
Last Quarter

Hourly Weather History & Observations

Time (EST) Temp. Windchill Dew Point Humidity Pressure Visibility Wind Dir Wind Speed Gust Speed Precip Events Conditions
12:16 AM - - - N/A% 30.41 in 10.0 mi Calm Calm - N/A   Overcast
12:36 AM 28.8 °F - 28.8 °F 100% 30.40 in 10.0 mi Calm Calm - N/A   Overcast
12:55 AM 28.8 °F - 28.8 °F 100% 30.39 in 7.0 mi Calm Calm - N/A   Overcast
1:16 AM 28.6 °F - 28.8 °F 100% 30.39 in 7.0 mi Calm Calm - N/A   Overcast
1:36 AM 28.4 °F - 28.6 °F 100% 30.39 in 10.0 mi Calm Calm - N/A   Mostly Cloudy
1:55 AM 26.1 °F - 26.1 °F 100% 30.37 in 7.0 mi Calm Calm - N/A   Scattered Clouds
2:16 AM 26.2 °F - 26.2 °F 100% 30.37 in 5.0 mi Calm Calm - N/A   Clear
2:36 AM 26.1 °F - 26.1 °F 100% 30.37 in 5.0 mi Calm Calm - N/A   Clear
2:56 AM 26.6 °F - 26.6 °F 100% 30.36 in 5.0 mi Calm Calm - N/A   Clear
3:16 AM 24.8 °F - 25.0 °F 100% 30.36 in 5.0 mi Calm Calm - N/A   Clear
3:36 AM 25.0 °F - 25.0 °F 100% 30.35 in 7.0 mi Calm Calm - N/A   Clear
3:55 AM 25.0 °F - 25.0 °F 100% 30.34 in 5.0 mi Calm Calm - N/A   Clear
4:16 AM 23.9 °F - 23.9 °F 100% 30.35 in 5.0 mi Calm Calm - N/A   Clear
4:36 AM 25.3 °F - 25.3 °F 100% 30.35 in 5.0 mi Calm Calm - N/A   Clear
4:55 AM 24.6 °F - 24.8 °F 100% 30.35 in 4.0 mi Calm Calm - N/A   Clear
5:16 AM 24.4 °F - 24.6 °F 100% 30.35 in 4.0 mi Calm Calm - N/A   Clear
5:36 AM 23.9 °F - 23.9 °F 100% 30.36 in 5.0 mi Calm Calm - N/A   Clear
5:55 AM 23.0 °F - 23.2 °F 100% 30.36 in 5.0 mi Calm Calm - N/A   Clear
6:16 AM 23.5 °F - 23.5 °F 100% 30.36 in 5.0 mi Calm Calm - N/A   Clear
6:36 AM 23.0 °F - 23.0 °F 100% 30.36 in 5.0 mi Calm Calm - N/A   Clear
6:56 AM 21.7 °F 17.0 °F 21.9 °F 100% 30.36 in 5.0 mi East 3.5 mph - N/A   Clear
7:16 AM 22.6 °F 18.0 °F 22.8 °F 100% 30.37 in 5.0 mi East 3.5 mph - N/A   Clear
7:36 AM 24.6 °F 18.8 °F 24.6 °F 100% 30.37 in 5.0 mi East 4.6 mph - N/A   Clear
7:55 AM 28.4 °F 22.2 °F 28.4 °F 100% 30.37 in 3.0 mi East 5.8 mph - N/A   Clear
8:16 AM 29.8 °F 23.0 °F 30.0 °F 100% 30.37 in 4.0 mi East 6.9 mph - N/A   Clear
8:36 AM 30.6 °F 23.8 °F 30.7 °F 100% 30.37 in 4.0 mi East 6.9 mph - N/A   Clear
8:55 AM 31.8 °F 25.4 °F 32.0 °F 100% 30.36 in 7.0 mi ESE 6.9 mph - N/A   Clear
9:16 AM 33.3 °F 25.7 °F 32.2 °F 96% 30.36 in 10.0 mi East 9.2 mph - N/A   Clear
9:36 AM 34.7 °F 28.1 °F 28.9 °F 79% 30.35 in 10.0 mi East 8.1 mph - N/A   Clear
9:55 AM 36.1 °F 30.6 °F 28.8 °F 75% 30.35 in 10.0 mi ESE 6.9 mph - N/A   Clear
10:16 AM 37.4 °F 32.8 °F 27.9 °F 68% 30.35 in 10.0 mi SE 5.8 mph - N/A   Clear
10:36 AM 39.0 °F 33.4 °F 26.6 °F 61% 30.35 in 10.0 mi SE 8.1 mph - N/A   Clear
10:56 AM 39.7 °F 33.7 °F 27.7 °F 62% 30.34 in 10.0 mi ESE 9.2 mph - N/A   Clear
11:16 AM 41.0 °F 36.4 °F 27.9 °F 60% 30.33 in 10.0 mi SSE 6.9 mph - N/A   Clear
11:36 AM 42.1 °F 37.7 °F 28.2 °F 58% 30.32 in 10.0 mi East 6.9 mph - N/A   Clear
11:55 AM 41.9 °F 39.0 °F 27.7 °F 57% 30.32 in 10.0 mi SSE 4.6 mph - N/A   Clear
12:16 PM 43.2 °F 40.5 °F 27.3 °F 54% 30.30 in 10.0 mi SSE 4.6 mph - N/A   Clear
12:36 PM 45.1 °F 42.8 °F 27.7 °F 50% 30.31 in 10.0 mi SE 4.6 mph - N/A   Clear
12:55 PM 46.4 °F 43.5 °F 28.4 °F 50% 30.30 in 10.0 mi ESE 5.8 mph - N/A   Clear
1:16 PM 48.0 °F - 30.0 °F 50% 30.29 in 10.0 mi SE 9.2 mph - N/A   Clear
1:36 PM 47.8 °F - 28.9 °F 48% 30.27 in 10.0 mi SE 3.5 mph - N/A   Clear
1:56 PM 50.0 °F - 30.7 °F 48% 30.26 in 10.0 mi ESE 9.2 mph - N/A   Clear
2:16 PM 49.5 °F - 28.4 °F 44% 30.25 in 10.0 mi SSE 4.6 mph - N/A   Clear
2:36 PM 50.5 °F - 28.9 °F 43% 30.24 in 10.0 mi SSE 3.5 mph - N/A   Clear
2:56 PM 50.9 °F - 29.3 °F 43% 30.23 in 10.0 mi SE 5.8 mph - N/A   Clear
3:16 PM 51.4 °F - 28.4 °F 41% 30.22 in 10.0 mi SE 9.2 mph - N/A   Clear
3:36 PM 51.4 °F - 27.1 °F 39% 30.22 in 10.0 mi SSE 5.8 mph - N/A   Clear
3:55 PM 51.4 °F - 27.7 °F 40% 30.21 in 10.0 mi SE 6.9 mph - N/A   Clear
4:16 PM 51.4 °F - 27.3 °F 39% 30.20 in 10.0 mi SSE 4.6 mph - N/A   Clear
4:36 PM 51.3 °F - 28.0 °F 41% 30.19 in 10.0 mi SE 4.6 mph - N/A   Clear
4:55 PM 51.1 °F - 28.4 °F 42% 30.18 in 10.0 mi ESE 6.9 mph - N/A   Clear
5:16 PM 51.1 °F - 27.7 °F 40% 30.18 in 10.0 mi South 5.8 mph - N/A   Clear
5:36 PM 50.4 °F - 27.5 °F 41% 30.18 in 10.0 mi SSE 3.5 mph - N/A   Clear
5:56 PM 49.6 °F - 28.8 °F 45% 30.17 in 10.0 mi ESE 5.8 mph - N/A   Clear
6:16 PM 47.1 °F - 29.3 °F 50% 30.17 in 10.0 mi ESE 4.6 mph - N/A   Clear
6:36 PM 45.7 °F 42.7 °F 28.4 °F 51% 30.17 in 10.0 mi ESE 5.8 mph - N/A   Clear
6:56 PM 45.7 °F 43.4 °F 28.0 °F 50% 30.17 in 10.0 mi ESE 4.6 mph - N/A   Clear
7:16 PM 43.7 °F 40.3 °F 27.9 °F 54% 30.17 in 10.0 mi East 5.8 mph - N/A   Clear
7:36 PM 43.9 °F 41.3 °F 27.5 °F 53% 30.17 in 10.0 mi ESE 4.6 mph - N/A   Clear
7:55 PM 44.2 °F 41.0 °F 27.5 °F 52% 30.16 in 10.0 mi ESE 5.8 mph - N/A   Clear
8:16 PM 44.1 °F 39.5 °F 27.5 °F 52% 30.16 in 10.0 mi ESE 8.1 mph - N/A   Clear
8:36 PM 44.8 °F 41.6 °F 27.0 °F 50% 30.15 in 10.0 mi ESE 5.8 mph - N/A   Clear
8:55 PM 44.4 °F 40.0 °F 27.0 °F 50% 30.15 in 10.0 mi ESE 8.1 mph - N/A   Clear
9:16 PM 44.2 °F 41.0 °F 26.6 °F 50% 30.15 in 10.0 mi ESE 5.8 mph - N/A   Clear
9:36 PM 43.7 °F 39.7 °F 26.6 °F 51% 30.14 in 10.0 mi ESE 6.9 mph - N/A   Clear
9:56 PM 43.5 °F 40.1 °F 26.2 °F 51% 30.14 in 10.0 mi ESE 5.8 mph - N/A   Clear
10:16 PM 43.9 °F 41.3 °F 26.1 °F 50% 30.15 in 10.0 mi ESE 4.6 mph - N/A   Clear
10:36 PM 44.2 °F 41.8 °F 26.4 °F 50% 30.15 in 10.0 mi ESE 4.6 mph - N/A   Scattered Clouds
10:56 PM 44.2 °F 41.8 °F 26.6 °F 50% 30.14 in 10.0 mi SE 4.6 mph - N/A   Overcast
11:16 PM 44.6 °F 42.2 °F 26.2 °F 49% 30.14 in 10.0 mi ESE 4.6 mph - N/A   Light Drizzle
11:36 PM 44.6 °F 41.4 °F 26.8 °F 50% 30.13 in 10.0 mi ESE 5.8 mph - N/A   Overcast
11:55 PM 44.8 °F 42.4 °F 26.2 °F 48% 30.12 in 10.0 mi ESE 4.6 mph - N/A   Overcast
11:58 PM 44.6 °F 42.2 °F 26.4 °F 49% 30.12 in 10.0 mi ESE 4.6 mph - N/A   Overcast